Regional Weather Roundup
Issued by NWS Albany, NY

Current Version | Previous Version | Graphics & Text | Print | Product List | Glossary Off
Versions: 1 2 3 4 5 6 7 8 9 10 11 12 13 14 15 16 17 18 19 20 21 22 23 24 25 26 27 28 29 30 31 32 33 34 35 36 37 38 39 40 41 42 43 44 45 46 47 48 49 50

842
ASUS41 KALY 011410
RWRALY

NEW YORK STATE HOURLY WEATHER ROUNDUP
NATIONAL WEATHER SERVICE ALBANY NY
1000 AM EDT SAT OCT 01 2016

NOTE: "FAIR" INDICATES FEW OR NO CLOUDS BELOW 12,000 FEET WITH NO
SIGNIFICANT WEATHER AND/OR NO OBSTRUCTIONS TO VISIBILITY.

NYZ032-033-038>043-046>054-057>066-NYZ062>081-082-084-011500-
EAST


CITY           SKY/WX    TMP DP  RH WIND       PRES   REMARKS
ALBANY         CLOUDY    53  48  83 N5        30.31F
GLENS FALLS    CLOUDY    55  51  86 N6        30.31F
POUGHKEEPSIE   CLOUDY    52  51  97 N6        30.27S FOG
NEWBURGH       CLOUDY    54  54 100 NE7       30.28S
MONTGOMERY     CLOUDY    55  53  93 NE12      30.26F FOG
WHITE PLAINS   DRIZZLE   58  54  86 NE10      30.22F FOG
ISLIP          DRIZZLE   58  58 100 N14       30.20F FOG
NEW YORK CITY  CLOUDY    60  57  89 NE13      30.22S
CENTRAL PARK   CLOUDY    59  54  83 NE10G18   30.25S
$$

NYZ005>009-017-018-044>046-055-056-011500-
CENTRAL


CITY           SKY/WX    TMP DP  RH WIND       PRES   REMARKS
FULTON         CLOUDY    56  49  77 VRB7      30.23F
SYRACUSE       CLOUDY    54  48  80 E13       30.23S
ROME           CLOUDY    54  50  86 SE10      30.29S
ELMIRA         CLOUDY    57  51  80 VRB6      30.21S
BINGHAMTON     CLOUDY    52  52 100 E8        30.22F FOG
MONTICELLO     CLOUDY    52  52 100 E9        30.27S
$$

NYZ026>034-041>043-087-011500-
NORTH


CITY           SKY/WX    TMP DP  RH WIND       PRES   REMARKS
WATERTOWN      CLOUDY    58  51  78 NE5       30.25S
FORT DRUM      NOT AVBL
OGDENSBURG       N/A     58  50  75 CALM      30.29R
MASSENA        CLOUDY    57  44  62 E6        30.31R
SARANAC LAKE   CLOUDY    52  42  69 NE5       30.29S
PLATTSBURGH    CLOUDY    57  48  72 S7        30.33R
$$

NYZ001>004-010>016-019>021-085-011500-
WEST


CITY           SKY/WX    TMP DP  RH WIND       PRES   REMARKS
NIAGARA FALLS  LGT RAIN  57  53  86 E9        30.16S
BUFFALO        LGT RAIN  56  54  93 E8        30.16S
DUNKIRK        CLOUDY    62  59  90 N3        30.14S
JAMESTOWN      CLOUDY    57  54  88 S9        30.15S
WELLSVILLE     CLOUDY    54  52  93 SE8       30.21R
ROCHESTER      CLOUDY    58  54  86 E9        30.20F
PENN YAN       CLOUDY    57  53  86 CALM      30.22S
$$

             KEY
       WCI = WIND CHILL INDEX
       VSB = VISIBILITY
       HX  = HEAT INDEX
$$




USA.gov is the U.S. government's official web portal to all federal, state and local government web resources and services.